Hourly Data Report for October 19, 2012

All times are specified in Local Standard Time (LST). Add 1 hour to adjust for Daylight Saving Time where and when it is observed.

IQALUIT CLIMATE
NUNAVUT

63°44'50.000" N
68°32'40.000" W
33.50 m
2402592
71321
XFB

Download Data

Hourly Data (October 2012)
Hourly Data Report for October 19, 2012
Temp Definition
°C
Dew Point Temp Definition
°C
Rel Hum Definition
%
Wind Dir Definition
10's deg

Wind Spd Definition
km/h
Visibility Definition
km
Stn Press Definition
kPa
Hmdx Definition


Wind Chill Definition


Weather Definition


TIME
00:00 -3.8 -5.0 91   0   101.43     LegendNANA
01:00 -4.9 -6.0 92 36 6   101.43   -8 LegendNANA
02:00 -4.7 -5.5 94 36 6   101.44   -7 LegendNANA
03:00 -4.2 -5.3 92 4 2   101.47   -5 LegendNANA
04:00 -4.0 -5.4 90 13 2   101.49   -5 LegendNANA
05:00 -3.6 -4.6 93 13 2   101.51   -4 LegendNANA
06:00 -3.8 -4.4 96 11 2   101.52   -5 LegendNANA
07:00 -3.7 -4.1 97 23 2   101.53   -5 LegendNANA
08:00 -3.0 -3.6 96 14 2   101.57   -4 LegendNANA
09:00 -2.5 -3.6 92 15 6   101.57   -5 LegendNANA
10:00 -2.4 -3.4 93 13 4   101.58   -4 LegendNANA
11:00 -1.9 -2.8 94 15 2   101.58   -3 LegendNANA
12:00 -1.8 -3.0 91   0   101.63     LegendNANA
13:00 -1.8 -2.6 94 31 4   101.64   -3 LegendNANA
14:00 -2.2 -3.2 93 35 17   101.68   -8 LegendNANA
15:00 -2.8 -4.3 89 35 20   101.74   -9 LegendNANA
16:00 -4.3 -6.1 87 33 17   101.79   -10 LegendNANA
17:00 -4.1 -5.5 90 31 17   101.81   -10 LegendNANA
18:00 -4.1 -5.3 91 32 11   101.83   -9 LegendNANA
19:00 -3.8 -5.6 87 33 13   101.87   -9 LegendNANA
20:00 -4.0 -5.4 90 34 9   101.90   -8 LegendNANA
21:00 -4.5 -4.7 99 31 11   101.89   -9 LegendNANA
22:00 -5.0 -5.2 98 31 9   101.93   -9 LegendNANA
23:00 -5.8 -6.9 92 34 4   101.96   -8 LegendNANA

Notes on Data Quality.

Legend

  • E = Estimated
  • M = Missing
  • NA = Not Available
  • ‡ = Partner data that is not subject to review by the National Climate Archives
Date modified: